Location: Kott?ru
(16.6209°N, 80.6208°E)
Time: 15:31:10
(UTC+00:00)

DELFI C3 - Visible Passes

Search period start: 28 May 2023 00:00
Search period end: 07 June 2023 00:00
Orbit: 456 x 468 km, 97.3° (Epoch: 27 May)

Date Brightness Start Highest point End Pass type
(mag) Time Alt. Az. Time Alt. Az. Time Alt. Az.
29 May ? 14:22:18 10° W 14:22:31 10° W 14:22:45 10° W visible
30 May ? 13:48:02 10° SSW 13:51:09 31° W 13:54:17 10° NW visible
01 Jun ? 14:20:29 10° WSW 14:21:14 11° W 14:21:59 10° W visible
02 Jun ? 13:46:30 10° SSW 13:49:40 33° W 13:52:50 10° NNW visible
04 Jun ? 14:18:09 10° WSW 14:19:19 11° W 14:20:28 10° WNW visible
05 Jun ? 13:44:20 10° SSW 13:47:32 36° W 13:50:45 10° NNW visible
